Tracking 19193 objects as of 23-Jun-2018
HD Live streaming from Space Station
objects crossing your sky now

FENGYUN 1C DEB

Track FENGYUN 1C DEB now!
10-day predictions


NORAD ID: 31661
Int'l Code: 1999-025CBT
Perigee: 808.3 km
Apogee: 911.7 km
Inclination: 99.0 °
Period: 102.0 minutes
Semi major axis: 7231 km
RCS: 0.0149 m2 (small)
Launch date: May 10, 1999
Source: People's Republic of China (PRC)
Launch site: Taiyaun Space Center, China (TSC)

Note: This is SATELLITE DEBRIS
aabbcc
Your satellite tracking list
Your tracking list is empty




NASA's NSSDC Master Catalog

Two Line Element Set (TLE):
1 31661U 99025CBT 18173.62177051  .00000271  00000-0  16882-3 0  9999
2 31661  99.0435 205.1701 0071511  57.7650  65.3003 14.11899835571717
Source of the keplerian elements: AFSPC